Location: Bijele Vode
(45.2833°N, 16.2000°E)
Time: 01:27:11
(UTC+00:00)

Cosmos 1634 Rocket - Pass Details

Date: 18 September 2020
Orbit: 961 x 991 km, 82.9° (Epoch: 26 October)

Event Time Altitude Azimuth Distance (km) Brightness Sun altitude
Exits shadow 19:34:24 58° 171° (S) 1,109 4.0 -26.5°
Maximum altitude 19:35:40 81° 97° (E) 979 3.8 -26.7°
Drops below altitude 10° 19:41:53 10° 10° (N) 2,714 6.6 -27.6°
Sets 19:44:24 0° 10° (N) 3,668 7.3 -28.0°
